Theta_e
309 310 310 309 309 309 309 309 310 309 308 307 306 307 307 307 307 309 310 311 312 313 312 313 314 314 315 316 319 320 321 324 324 326 327 327 330 330 332 335 338 339 338 339 340 343 340 338 338 338 347 345 345 347
310 310 309 309 309 309 309 309 309 310 309 308 307 306 307 307 307 307 310 312 312 313 312 312 313 312 313 314 316 316 318 320 324 327 330 332 333 331 336 335 334 337 337 339 337 338 342 336 336 342 340 346 346 348
311 311 310 310 310 309 308 308 309 310 309 309 308 308 308 308 307 306 309 311 311 311 312 312 313 313 314 313 313 314 315 317 319 321 324 329 335 337 339 340 341 341 337 338 341 339 344 342 342 344 344 344 344 345
311 311 312 311 310 308 308 308 308 309 310 308 308 308 307 307 308 306 308 310 312 311 312 312 311 312 313 314 315 315 314 315 316 319 322 326 330 331 337 339 341 342 338 341 341 345 345 344 343 343 343 342 342 343
311 312 310 308 307 307 308 309 309 308 310 308 308 306 308 309 309 306 309 309 310 311 312 311 311 311 312 312 314 314 315 315 316 318 322 324 324 328 331 337 337 339 342 341 340 345 344 344 342 343 342 342 343 343
312 309 308 307 307 307 308 308 309 309 309 308 308 307 308 308 308 308 311 312 312 311 311 311 312 312 312 313 313 314 314 315 315 317 319 319 320 323 329 335 334 334 336 339 341 342 341 340 339 342 342 342 342 343
308 308 308 308 307 307 307 307 309 310 308 308 308 307 308 309 309 310 312 310 310 310 309 309 313 315 315 314 314 314 314 314 316 317 317 318 320 324 329 335 332 330 336 340 340 339 339 336 336 335 335 336 339 343
308 308 308 308 307 307 307 308 309 309 308 308 307 307 307 309 309 309 310 310 309 309 308 311 313 313 314 314 316 315 316 316 315 316 317 319 319 322 329 329 327 329 337 336 338 336 336 335 336 335 333 334 334 337
308 308 308 308 308 307 307 308 309 309 308 308 306 307 308 309 309 310 309 309 309 310 311 310 312 314 312 314 316 317 316 316 316 318 318 320 322 328 327 329 331 335 333 333 333 334 333 333 334 334 333 333 334 333
308 308 308 308 308 307 306 307 309 308 308 306 307 310 311 310 309 309 310 310 310 311 309 310 311 313 311 313 315 317 316 317 318 318 318 322 323 323 325 328 329 330 330 328 329 331 330 330 330 331 332 332 333 332
309 308 309 308 307 307 307 308 308 307 307 311 312 313 313 310 311 310 312 312 312 311 311 311 311 311 310 313 314 317 320 319 320 319 320 321 322 323 325 327 328 327 328 328 327 328 328 328 328 328 329 330 330 329
309 309 309 308 307 310 310 309 308 307 312 311 310 312 312 313 313 314 313 314 315 316 315 315 316 313 313 312 315 315 322 323 321 320 321 322 324 322 323 328 327 329 327 333 334 333 333 333 332 331 328 327 327 327
309 309 309 307 310 309 309 307 306 308 309 311 312 314 314 314 315 316 315 313 310 312 315 315 317 316 319 318 318 317 318 326 324 324 323 324 329 327 329 330 331 332 333 335 337 336 335 336 336 336 336 336 331 326
309 309 308 308 310 308 307 306 306 307 309 314 313 315 313 316 317 318 319 319 315 311 314 316 316 318 320 323 324 325 326 326 329 326 332 334 333 332 333 332 332 333 333 335 337 339 339 343 341 339 338 339 334 329
309 308 307 309 309 308 307 306 306 308 313 314 312 312 315 315 315 316 315 315 316 317 317 318 320 320 323 325 325 325 326 328 328 332 334 331 332 332 332 331 332 332 333 333 334 336 339 340 343 342 339 338 335 333
308 307 308 309 309 307 307 307 308 312 314 313 313 315 315 315 315 316 315 316 316 316 317 317 321 323 324 324 325 326 325 326 326 328 327 328 329 331 332 332 332 333 333 332 332 332 334 338 340 342 342 339 336 334
307 308 307 309 309 308 307 309 312 314 313 312 314 315 316 315 315 315 315 315 315 315 317 320 320 323 325 326 326 327 325 325 321 322 325 320 322 325 329 331 331 331 332 333 333 332 332 333 339 341 344 342 340 338
307 307 309 309 309 308 310 311 313 314 313 313 315 315 315 315 316 316 315 315 316 317 317 318 317 319 323 325 325 324 321 322 323 324 325 324 325 326 327 329 331 331 332 331 331 331 332 331 331 335 340 343 342 338
309 312 311 309 309 310 312 313 313 314 313 313 314 314 314 315 316 316 317 317 318 318 318 318 318 323 322 322 322 324 323 323 323 323 322 324 325 326 327 327 328 328 329 329 329 329 328 329 329 330 331 338 340 340
312 311 309 308 309 311 313 313 313 313 314 314 314 314 315 316 317 318 317 317 320 319 319 321 320 319 319 320 321 322 323 323 323 324 324 324 324 324 324 325 325 325 326 326 327 326 327 328 329 328 329 330 331 336
310 309 308 309 310 309 312 312 313 312 313 314 314 315 316 316 315 315 314 315 315 314 315 314 313 313 314 316 319 321 323 324 325 325 325 324 325 325 326 326 327 328 327 326 327 327 327 328 329 329 329 329 329 331
309 309 309 309 309 311 311 310 310 311 312 313 314 315 315 316 315 314 315 314 313 311 312 312 313 313 313 315 316 321 322 323 324 324 323 323 324 326 326 326 327 327 328 328 328 329 329 329 329 330 330 330 331 331
309 309 309 309 309 308 309 309 311 312 314 314 314 315 316 317 316 314 313 312 311 312 312 313 313 316 318 320 318 318 317 315 314 314 314 315 318 321 322 322 322 323 325 327 327 328 328 328 328 329 330 331 332 332
310 310 310 309 308 310 309 312 312 312 313 316 317 319 320 318 316 316 316 314 312 312 312 312 312 313 314 314 312 312 312 312 313 313 313 313 313 312 311 313 315 314 316 318 320 326 328 328 329 330 331 331 330 331
311 311 311 309 312 314 317 318 317 318 319 320 321 321 321 320 321 319 319 317 314 313 313 312 312 312 312 313 314 315 316 316 316 316 313 313 313 314 314 314 311 311 311 313 315 316 317 323 326 329 330 331 332 332
311 315 314 320 320 321 322 322 322 322 321 322 322 320 321 320 319 319 318 315 314 314 313 312 313 314 313 311 311 310 311 312 312 314 315 316 315 315 313 314 314 314 312 311 311 313 313 313 314 317 320 324 325 326
318 324 321 322 324 323 324 324 324 324 325 326 324 324 323 319 320 318 315 314 313 312 311 312 310 310 312 312 312 311 310 311 310 310 311 310 309 309 309 309 309 309 309 313 313 313 312 313 313 312 312 314 317 321
324 326 325 325 325 325 325 325 325 324 324 321 321 322 322 321 319 316 314 313 313 311 311 311 310 310 310 309 309 309 309 309 310 311 312 311 310 310 309 309 309 309 309 309 308 310 312 314 313 313 313 314 316 317
327 326 325 325 324 325 323 323 323 322 322 322 323 321 319 317 316 315 314 312 312 313 312 310 310 310 309 309 310 311 312 311 311 311 310 309 307 307 307 307 309 309 309 309 309 308 309 312 315 316 316 314 315 317
325 324 324 323 324 325 323 322 322 321 320 320 318 317 316 314 313 314 314 311 310 311 310 309 309 310 311 311 311 311 310 309 308 308 308 306 306 305 305 305 307 307 307 309 310 310 310 311 314 315 315 316 316 314
324 324 323 324 324 324 323 323 322 321 319 318 317 316 316 315 311 310 313 313 311 310 309 310 311 310 310 310 309 308 307 306 307 306 305 305 304 303 304 305 305 306 306 307 308 309 310 311 312 312 312 313 312 312
324 324 324 325 326 325 325 325 323 320 319 316 317 316 317 316 315 314 312 311 309 309 310 310 309 309 308 308 307 306 305 305 305 305 304 303 303 302 303 304 303 304 304 305 307 307 308 309 309 309 309 310 310 309
325 325 326 326 326 325 325 325 318 316 316 317 317 318 319 318 316 314 312 309 309 310 309 308 308 307 307 306 305 305 303 303 303 303 302 301 301 300 301 302 302 303 302 303 304 305 306 307 307 307 307 306 306 307
Wind_Speed
8 9 10 13 15 18 19 20 19 17 15 15 14 14 13 12 11 12 11 9 11 11 24 21 19 19 18 17 11 18 13 5 11 14 14 15 15 16 19 22 19 19 15 15 16 9 10 8 8 7 9 10 9 8
8 9 10 13 15 18 20 23 20 17 15 15 15 15 14 13 12 13 13 10 12 15 23 22 22 23 21 21 21 21 21 20 9 9 8 5 11 13 18 15 22 18 19 13 16 9 20 19 4 9 15 12 8 6
8 11 13 15 17 19 20 23 20 16 16 16 15 15 15 15 15 15 15 15 16 13 22 20 19 16 18 21 22 25 23 21 18 16 15 6 8 10 10 11 17 17 21 16 13 16 19 38 28 10 9 9 9 7
11 13 15 17 19 19 20 23 21 19 16 16 15 15 15 15 15 14 15 13 14 9 6 16 14 14 17 17 17 23 26 24 25 19 19 8 7 16 9 7 13 10 19 15 7 8 20 19 18 14 11 10 8 6
12 14 16 18 18 18 21 24 22 16 14 14 15 14 14 13 12 12 14 14 16 11 4 22 26 26 22 21 21 18 21 22 21 17 12 10 16 13 12 3 9 8 10 11 9 19 11 18 14 12 13 10 7 6
13 15 16 18 18 19 19 24 20 15 14 14 14 13 12 11 8 7 4 3 12 17 5 3 11 20 17 14 16 20 24 25 23 21 16 20 23 16 9 7 5 23 29 38 15 28 19 16 12 12 14 11 6 7
13 15 16 18 19 20 21 23 19 14 13 15 13 11 11 10 9 6 3 1 4 2 3 6 7 2 4 10 18 26 23 25 23 21 24 22 24 20 11 13 9 23 28 32 17 31 31 20 16 12 14 12 8 7
13 15 17 19 20 20 20 23 19 15 14 14 10 9 11 9 9 8 10 12 12 8 5 3 5 11 8 13 8 12 18 17 21 21 23 19 21 20 9 16 7 6 18 22 28 19 16 19 12 11 11 9 8 7
14 16 18 20 21 20 21 24 16 13 13 8 8 10 10 4 4 5 7 8 10 9 3 4 2 5 5 4 5 8 10 6 12 11 16 12 12 11 9 12 3 14 2 16 29 26 14 12 7 6 4 2 2 3
15 18 20 23 23 22 22 21 12 10 7 6 6 3 3 3 7 7 3 2 3 4 6 5 7 5 7 3 4 4 7 5 8 14 16 14 14 22 24 18 8 2 5 16 20 10 8 3 3 3 3 2 2 2
16 19 22 25 26 26 23 13 7 4 3 3 3 3 4 7 2 2 3 4 4 4 6 8 14 6 6 4 4 5 4 5 13 11 13 11 15 18 22 21 13 4 6 21 19 19 14 9 9 9 10 10 9 8
17 20 23 26 28 22 11 4 3 4 3 3 8 9 7 3 2 4 2 4 4 4 3 4 3 11 7 11 8 5 5 4 6 16 11 16 11 29 24 6 19 8 7 21 16 14 12 9 11 11 14 15 15 16
19 21 24 26 19 12 1 2 3 5 5 5 3 4 2 1 2 2 2 2 2 6 8 15 8 4 5 12 4 3 5 6 7 6 8 8 8 13 10 4 3 8 11 4 7 8 9 10 10 12 16 16 15 15
19 21 23 20 9 4 2 2 4 2 0 3 2 4 4 3 3 3 5 6 5 10 13 11 13 5 6 7 7 4 3 3 6 6 4 6 12 9 8 6 3 3 5 6 8 11 12 14 11 13 14 14 12 14
19 21 17 13 4 2 2 3 3 1 2 2 2 3 2 8 10 10 10 11 15 13 12 11 11 9 6 4 3 4 2 4 5 4 4 10 10 8 10 8 8 7 5 6 7 8 11 11 13 11 10 11 12 13
20 20 16 10 2 1 3 4 2 3 3 3 5 6 8 7 5 8 9 12 15 14 3 5 4 4 3 3 4 4 3 7 6 4 12 13 10 8 8 4 5 6 6 8 9 10 11 11 11 12 10 9 10 12
20 13 18 2 3 3 3 2 1 3 3 4 6 9 12 11 10 11 12 13 16 17 4 2 3 4 5 4 5 5 4 3 3 3 5 17 11 10 8 8 10 10 11 11 11 12 12 12 11 12 10 9 10 11
17 20 11 6 5 3 1 3 3 3 4 6 10 15 16 14 17 15 14 13 12 14 14 4 7 4 5 6 5 8 11 10 8 2 5 4 3 7 10 10 10 11 11 12 11 14 14 11 12 12 9 8 9 10
20 8 0 10 8 2 1 2 2 3 3 10 12 14 17 14 13 17 17 20 16 13 13 9 4 3 3 7 16 21 23 17 17 16 22 10 4 5 5 10 12 12 13 14 15 14 13 14 11 12 12 11 8 15
4 3 8 11 6 1 2 2 3 4 3 6 8 11 17 10 13 12 15 18 16 9 5 6 6 17 19 21 22 21 22 20 18 17 18 18 17 18 17 15 14 18 17 16 15 14 13 14 10 13 12 11 14 14
5 7 10 8 1 3 3 4 2 3 6 5 8 12 10 15 18 18 18 15 11 5 7 10 21 26 25 21 19 19 16 13 13 14 16 20 19 18 17 16 20 20 16 14 15 15 14 14 14 14 15 15 13 13
7 8 7 4 1 1 1 3 4 7 4 8 7 10 4 7 7 10 9 11 8 11 19 24 32 32 23 18 13 10 12 13 14 15 15 14 14 15 15 15 17 17 17 19 19 17 18 17 17 19 18 17 18 17
6 4 3 2 1 0 1 3 1 2 3 6 6 3 3 4 5 7 5 6 8 25 29 29 32 31 15 13 17 18 20 21 22 21 21 22 22 18 18 18 16 16 14 16 18 19 22 21 22 21 21 20 18 18
5 3 2 2 3 2 0 1 1 1 3 1 1 1 2 2 1 3 2 2 14 19 27 34 36 35 30 29 29 24 22 20 20 22 23 22 21 24 24 19 19 20 25 25 26 16 17 17 17 18 18 19 20 22
2 3 4 2 3 4 3 4 3 4 3 4 4 3 3 4 2 2 2 0 9 17 18 25 27 25 24 21 19 17 16 17 17 15 13 15 18 20 23 22 21 21 23 25 26 25 28 22 15 12 13 15 18 18
3 7 8 6 6 4 4 4 6 5 2 1 3 5 4 1 3 4 4 14 14 12 18 20 18 14 14 15 14 16 15 13 15 16 15 15 16 15 18 20 21 22 22 22 22 26 25 22 24 24 20 17 19 18
3 5 7 6 4 4 4 5 4 3 4 4 3 5 2 3 5 3 3 6 9 10 11 12 8 11 12 13 15 13 16 15 18 18 17 15 15 16 19 20 22 23 22 21 22 23 23 25 26 21 22 21 17 17
5 3 6 11 8 7 2 2 1 2 3 6 1 3 2 2 2 1 4 5 7 10 12 12 12 11 11 13 16 16 16 16 16 17 17 14 15 19 24 23 22 22 25 22 24 23 27 24 23 22 23 21 20 20
5 5 5 8 4 5 2 4 5 2 6 6 8 4 5 6 3 6 7 12 13 12 13 18 17 16 15 16 16 17 18 18 22 23 23 23 25 25 25 24 24 25 25 24 24 23 20 21 21 25 23 17 18 17
6 8 6 3 2 3 4 5 6 7 9 10 16 16 10 5 6 6 6 6 7 12 16 17 17 18 18 18 19 19 18 18 20 20 20 23 24 25 24 23 24 25 25 24 23 21 22 20 19 20 23 24 22 17
11 10 7 5 5 7 8 11 11 10 11 14 12 13 7 1 4 4 5 11 13 14 16 17 18 18 18 19 20 21 21 19 18 17 17 19 22 21 21 21 21 23 24 23 22 21 21 20 20 21 23 23 24 25
4 5 4 2 4 6 10 7 8 10 6 6 4 1 1 1 1 5 9 12 15 16 16 17 18 19 18 18 17 17 17 17 17 17 16 20 22 21 21 19 20 21 22 20 19 19 19 19 19 19 20 20 21 21
8 5 6 7 8 5 9 9 8 6 6 2 3 6 3 2 2 4 8 13 15 15 16 18 17 17 17 17 17 17 17 15 17 17 23 23 23 19 19 19 20 20 23 19 19 17 17 18 18 18 18 18 19 21
Wind_Direction
332 342 347 353 351 350 346 338 326 317 313 310 309 310 317 319 305 297 288 286 273 275 281 286 288 292 289 280 273 288 328 271 246 256 244 249 249 246 248 255 247 235 234 241 241 258 234 34 351 296 115 121 114 98
313 323 332 338 342 344 344 343 328 322 311 304 302 304 307 307 307 288 281 277 264 258 270 289 282 276 266 261 276 290 287 301 334 329 354 312 282 258 249 247 245 249 233 234 244 249 116 114 193 143 171 137 125 111
302 312 319 323 328 331 336 334 332 322 319 315 310 306 302 302 295 284 267 270 285 287 292 270 270 282 257 249 246 258 267 271 281 297 309 294 282 294 284 287 287 316 239 235 229 240 135 149 157 163 103 135 144 116
302 310 315 317 321 325 331 329 326 320 311 316 313 310 304 298 295 280 264 270 267 271 275 285 300 288 284 266 258 241 252 264 275 286 292 276 290 316 338 296 309 296 323 230 232 177 120 131 137 140 140 130 117 114
306 312 314 318 322 321 327 329 326 319 311 312 314 308 308 310 296 278 275 270 248 243 276 289 299 287 265 256 247 253 252 250 255 261 256 266 278 290 285 311 271 300 322 301 215 152 144 136 136 142 129 115 103 93
310 312 316 324 323 322 320 332 326 318 315 313 311 313 313 314 305 294 308 236 246 251 252 285 296 289 284 267 242 243 252 248 242 246 255 268 273 280 273 277 284 342 335 318 267 140 109 125 147 140 123 108 93 86
309 315 321 323 325 323 319 327 320 314 312 310 306 310 318 302 288 241 251 318 348 294 305 296 271 180 300 277 249 243 243 230 247 244 244 257 267 270 277 265 297 342 332 316 357 128 141 152 130 117 101 86 71 83
310 316 324 326 326 324 325 326 315 310 308 305 292 295 309 317 294 271 253 270 274 274 246 264 280 314 346 305 279 242 247 244 226 251 258 240 252 259 263 263 130 349 317 296 313 321 146 107 122 100 77 70 64 47
309 318 322 326 326 324 319 327 312 308 313 297 295 294 299 266 254 261 296 279 273 231 251 234 262 286 334 316 286 282 218 231 228 224 239 245 236 225 233 294 327 105 281 266 257 250 78 84 74 66 48 35 61 33
312 319 321 326 326 321 319 321 306 309 303 296 305 295 256 231 281 300 290 246 233 226 228 248 244 251 306 298 295 293 214 226 219 231 228 224 240 254 242 244 208 32 319 305 319 349 345 342 44 351 316 330 334 328
316 319 325 324 324 320 315 304 297 305 290 322 256 264 284 291 294 246 280 239 192 247 218 239 228 228 249 219 230 251 234 229 228 206 211 217 230 237 249 227 222 207 292 276 278 276 272 283 288 283 282 282 280 279
316 322 326 326 325 324 314 259 245 193 310 292 295 292 274 238 235 259 250 265 259 295 310 254 194 219 225 209 198 261 271 266 237 176 194 227 215 205 228 286 224 216 251 264 267 285 292 297 288 287 282 281 279 278
319 324 328 330 331 334 306 192 187 217 261 285 279 265 250 216 272 212 284 262 272 294 292 323 307 253 238 198 185 172 256 267 338 191 191 212 131 141 163 180 231 247 249 276 296 287 292 299 298 290 284 283 273 272
322 329 329 335 342 360 114 148 174 203 281 253 303 303 245 236 257 264 254 290 226 245 286 293 287 267 255 205 221 244 55 287 228 169 111 108 101 118 107 114 124 18 9 342 331 338 334 341 321 293 275 275 269 265
328 328 328 332 327 334 180 180 196 145 294 261 272 257 262 322 337 355 346 314 300 279 278 303 266 246 267 278 23 303 227 277 5 60 89 97 92 89 65 78 80 61 26 11 14 351 343 329 318 312 287 270 263 258
329 332 337 325 227 180 180 174 180 233 253 245 242 263 268 247 307 311 314 314 321 326 115 306 295 281 287 272 230 40 360 23 349 28 24 47 53 57 64 55 58 39 3 3 2 355 347 337 328 310 312 288 270 261
329 330 338 316 173 194 201 227 292 236 226 239 244 275 314 334 319 320 321 323 339 334 327 235 279 298 313 300 347 18 48 103 316 344 85 43 356 336 343 354 13 358 345 342 342 343 337 332 329 324 304 301 289 270
322 318 318 184 171 156 180 215 264 256 249 271 344 357 341 330 331 323 334 324 324 327 331 316 303 293 332 3 351 346 33 341 228 287 175 94 287 315 328 335 333 327 324 324 321 319 314 312 322 324 312 296 290 275
325 324 358 164 161 157 255 218 262 285 271 324 333 338 344 322 322 337 331 335 337 334 313 295 237 62 321 348 343 332 342 4 357 339 332 2 354 309 295 312 313 314 318 308 306 304 303 304 298 311 304 312 302 291
348 44 142 151 153 17 309 299 290 284 321 324 325 330 319 304 317 360 3 355 350 336 338 360 4 329 330 318 317 319 320 331 332 329 330 338 345 343 342 340 320 304 305 303 298 292 290 296 299 299 306 318 310 303
99 112 140 139 145 23 342 348 330 337 324 322 337 337 333 6 26 27 17 19 34 18 338 335 325 326 320 311 300 304 310 314 322 320 318 321 327 325 320 316 318 309 299 300 305 307 304 300 305 304 298 298 293 300
132 109 137 153 86 17 360 360 312 313 293 303 338 349 5 353 360 358 355 22 25 350 342 325 323 319 311 295 299 299 317 319 319 321 320 325 337 332 329 325 322 321 322 325 333 321 314 308 301 310 304 294 294 293
140 142 127 140 121 358 255 351 335 299 305 356 349 352 342 360 10 10 65 33 360 4 358 355 7 32 33 57 78 78 75 73 65 63 58 52 49 50 50 38 28 10 344 328 315 300 291 290 292 296 298 294 292 289
151 156 152 170 172 165 180 180 209 292 295 301 306 301 142 157 160 55 76 25 357 6 15 21 27 32 52 52 53 55 55 55 55 54 51 49 46 46 41 33 28 17 19 20 20 1 310 299 292 296 296 295 289 293
208 196 180 199 194 193 194 156 153 204 159 180 204 207 207 193 192 88 51 281 8 357 360 7 12 29 29 32 30 23 18 14 4 351 9 15 17 16 13 15 21 23 13 9 13 14 19 24 21 354 325 321 311 299
245 201 191 196 160 214 174 174 192 193 161 180 272 127 185 209 59 62 11 8 10 360 354 352 351 348 8 15 12 13 9 10 3 10 3 357 3 357 357 353 351 351 356 353 353 4 6 359 6 10 9 15 360 351
257 180 197 218 234 187 226 223 222 194 207 218 180 194 180 70 51 44 33 16 360 2 354 360 17 8 356 357 355 355 8 7 8 2 353 353 356 360 358 348 343 338 341 341 345 338 329 347 355 347 344 351 353 344
252 242 184 180 204 213 272 212 200 43 344 343 40 59 57 57 79 360 334 316 338 339 331 324 344 341 351 358 3 359 357 354 353 350 353 357 355 354 351 348 343 347 346 341 335 334 333 319 322 334 338 328 330 331
229 180 205 257 226 193 195 40 62 43 28 33 60 76 85 85 68 352 7 16 17 13 355 352 359 359 358 356 357 357 355 352 354 354 356 354 352 353 351 350 350 346 343 339 337 334 322 326 318 319 319 316 329 326
204 188 205 204 32 8 89 109 86 77 70 85 112 112 101 80 47 17 23 39 357 348 357 356 353 359 359 356 353 356 356 355 357 355 352 349 346 340 341 345 346 345 345 343 341 337 335 342 346 351 358 2 355 343
197 155 221 217 153 177 148 119 103 96 100 93 105 111 114 84 48 48 342 347 349 357 357 355 356 359 356 353 351 349 347 349 350 350 350 347 342 343 343 347 343 345 344 348 349 347 350 346 351 350 349 352 355 2
165 226 230 168 107 158 135 125 92 92 81 77 65 84 232 276 335 47 13 2 360 359 359 355 352 350 349 348 348 346 347 345 344 346 354 352 349 346 347 348 345 349 348 350 350 354 353 354 356 358 355 354 355 358
265 295 279 99 126 213 195 108 54 42 31 73 256 259 248 66 125 26 357 356 355 352 353 350 348 346 348 349 349 348 349 349 340 348 357 349 343 355 356 351 352 353 353 354 350 352 353 356 357 359 360 1 2 4